Wind_Speed
11 11 13 14 15 16 16 16 16 17 18 18 18 19 19 19 19 20 20 20 20 20 20 21 21 21 21 22 22 22 22 22 22 22 22 22 22 23 23 23 23 23 23
9 11 13 14 15 16 17 18 18 19 20 20 20 20 21 21 22 22 23 23 23 23 23 23 24 24 25 25 25 25 25 25 25 25 25 25 25 26 26 26 27 27 27
10 11 12 13 14 16 18 19 20 20 21 21 22 22 23 24 24 24 25 25 25 25 25 26 26 27 28 28 29 29 29 29 29 29 29 29 29 29 29 30 30 30 30
10 11 13 14 15 16 18 19 21 21 22 23 24 25 26 26 26 27 27 27 28 28 28 29 29 30 30 31 32 32 32 32 33 32 32 33 33 33 33 33 33 33 33
12 13 14 15 16 18 19 20 22 23 24 26 26 26 27 28 29 29 29 29 30 30 31 31 32 33 33 34 35 35 35 35 35 36 36 36 36 37 37 37 37 36 36
14 14 16 17 18 20 21 22 24 26 27 28 28 29 30 31 32 33 33 33 33 33 34 34 35 36 37 37 38 38 38 39 39 39 40 39 39 41 41 41 41 40 39
16 17 18 20 21 22 24 25 26 27 29 31 32 32 33 34 34 35 36 36 36 36 36 37 37 39 40 41 41 42 42 42 42 43 43 42 42 43 45 45 45 45 43
19 20 22 22 24 26 26 27 29 30 30 31 32 34 35 34 34 35 36 36 37 38 39 40 41 42 42 43 43 44 44 44 45 45 46 45 45 46 48 48 49 49 48
21 23 24 25 26 27 28 29 29 31 31 33 34 34 35 35 36 36 36 37 38 39 40 40 41 42 42 44 45 45 45 46 47 48 49 49 49 50 52 53 53 54 52
23 24 26 27 27 28 29 30 31 32 33 34 34 33 34 35 37 38 39 39 40 41 42 42 42 43 43 45 46 47 48 49 50 51 52 53 54 55 56 57 58 58 58
26 26 27 27 28 30 30 30 31 32 32 34 35 35 37 37 38 39 40 41 42 43 44 44 45 46 47 48 49 51 52 53 54 55 56 57 59 60 61 62 63 63 63
28 28 29 30 30 31 33 34 33 34 35 36 37 38 38 39 39 40 41 42 43 44 46 47 48 49 51 52 54 56 57 58 59 60 61 61 62 63 64 64 65 65 66
29 30 31 32 33 34 35 36 36 36 36 37 38 39 40 41 41 42 43 44 46 47 48 50 51 52 54 56 58 60 61 62 63 64 64 64 65 65 65 65 66 67 67
31 32 33 34 35 35 36 37 37 37 38 39 40 41 42 43 44 45 46 48 49 50 52 53 55 56 58 59 60 62 63 64 64 65 65 65 66 66 66 67 67 68 68
32 33 34 35 35 36 37 38 39 39 40 41 42 44 45 46 48 49 51 52 53 54 56 57 58 59 60 61 62 62 62 62 62 63 63 63 63 64 64 66 67 67 68
33 34 35 36 37 38 39 39 40 41 43 44 45 46 48 49 51 52 54 55 56 57 58 58 59 59 59 60 59 59 59 59 59 59 60 60 60 61 61 61 62 62 63
35 36 36 37 38 39 40 41 42 44 45 46 47 48 49 51 52 53 54 55 56 57 57 57 57 56 56 55 55 55 55 55 55 55 55 55 55 55 55 54 54 54 54
36 37 38 39 40 41 42 43 45 46 47 48 49 50 51 52 53 54 54 54 54 54 54 53 53 52 52 52 51 51 51 51 50 49 48 48 47 47 47 47 47 47 46
38 39 40 41 43 44 45 45 46 47 48 49 50 51 51 51 51 51 51 51 51 51 51 50 49 49 48 47 47 46 46 45 44 44 43 42 42 42 41 41 41 40 40
39 41 42 43 44 45 46 47 48 49 49 50 50 50 49 49 49 49 49 49 49 48 47 46 45 44 42 41 40 39 38 38 38 37 36 36 36 36 35 35 34 34 34
41 42 43 44 45 45 46 46 47 47 47 47 47 47 47 47 47 46 45 44 43 42 41 40 38 37 36 34 33 33 33 32 32 31 31 31 31 30 30 29 28 28 28
42 43 44 44 45 45 45 46 46 46 46 45 45 45 44 43 42 41 39 38 37 35 34 32 32 31 30 29 29 29 29 29 28 28 28 27 27 26 26 25 25 24 23
42 43 43 44 44 44 45 44 44 43 43 42 41 40 39 38 36 35 33 31 30 29 28 28 27 27 26 27 27 26 26 25 25 25 25 25 24 24 24 23 22 21 20
42 42 42 42 42 42 42 41 41 40 39 38 36 35 34 32 31 29 28 27 27 26 25 25 24 24 24 24 24 24 24 23 23 23 23 22 21 21 21 20 19 18 18
40 40 40 39 39 39 39 38 37 35 34 33 32 30 29 28 27 26 25 24 24 23 23 23 22 22 22 22 22 21 21 21 21 21 20 19 18 18 18 17 17 17 17
37 37 37 36 36 35 34 33 32 31 30 29 28 26 25 24 24 22 21 21 22 22 21 20 20 20 19 19 19 18 19 19 19 19 18 17 17 16 16 16 16 16 16
Wind_Direction
207 210 213 216 217 219 222 226 232 237 240 243 247 250 252 255 258 259 261 263 266 269 271 273 275 276 277 278 279 280 281 281 281 280 280 279 278 277 277 278 278 278 278
218 222 223 224 224 228 231 235 239 243 246 248 250 251 254 257 260 262 265 266 269 271 272 274 275 276 277 278 278 279 279 280 280 280 280 279 278 277 276 275 275 275 276
229 228 228 229 233 237 240 243 246 247 250 252 254 256 258 260 262 265 267 269 270 272 273 274 275 276 277 278 278 278 279 280 280 279 279 279 278 277 276 276 275 275 275
246 244 239 240 242 245 249 250 251 252 254 256 258 259 260 263 265 266 268 270 271 272 273 275 276 276 277 278 278 278 279 280 280 280 279 279 279 278 277 276 275 275 275
257 255 254 254 253 254 258 258 257 258 260 260 261 261 263 265 267 268 271 272 273 274 275 275 276 276 277 277 277 277 278 279 279 279 279 278 278 277 277 276 275 274 274
265 265 262 264 264 262 263 265 265 263 264 265 266 267 267 268 268 271 271 273 274 273 273 274 274 275 276 277 277 277 277 278 278 278 278 277 277 276 276 276 276 275 274
268 269 267 270 270 268 268 269 270 268 269 268 267 266 267 269 270 271 271 273 274 274 273 273 274 275 276 277 277 277 278 278 278 277 277 277 276 275 275 275 275 275 274
271 272 271 272 273 271 270 270 270 270 272 272 270 268 268 271 272 272 273 273 274 272 271 271 273 274 275 275 275 275 275 276 277 277 277 277 276 275 275 275 275 275 274
278 279 279 278 277 275 275 275 275 275 276 276 274 274 273 273 272 273 273 274 273 273 273 273 274 274 274 274 274 275 275 275 275 276 277 277 276 276 275 275 275 274 274
281 283 283 282 282 281 281 282 280 279 278 278 277 277 277 275 275 275 275 275 274 276 276 276 276 276 276 276 276 276 275 275 275 276 276 276 276 276 275 275 275 274 273
283 285 285 285 286 286 286 288 284 282 281 280 279 279 278 277 276 276 276 276 276 277 277 277 277 277 277 277 277 277 277 277 277 277 276 276 276 275 275 274 274 273 272
283 284 285 286 287 287 286 287 285 284 284 282 281 281 281 279 278 278 278 278 278 279 279 279 279 279 279 279 279 279 279 279 278 278 278 277 276 275 275 274 273 273 272
285 285 285 286 286 287 287 287 286 285 284 284 283 283 282 281 281 281 281 280 281 281 281 281 281 281 281 281 280 280 280 279 279 279 278 277 276 276 275 274 274 273 272
285 286 286 286 287 287 287 287 286 286 286 286 285 285 285 284 284 284 284 283 283 283 283 283 283 283 282 282 282 281 281 280 280 279 279 278 276 276 275 274 274 273 272
286 287 287 287 288 288 288 288 288 288 288 287 286 286 286 285 286 286 286 286 285 285 285 285 285 284 284 284 284 283 283 282 281 281 280 279 278 277 276 275 275 274 273
286 287 287 287 288 288 288 289 289 289 288 288 287 287 287 287 287 287 287 287 286 286 286 286 286 286 285 285 284 284 284 283 283 282 281 281 279 279 278 277 276 275 274
288 288 288 289 290 290 289 289 289 289 289 289 289 290 289 289 288 288 288 288 288 288 288 288 287 287 286 286 286 285 285 285 285 284 283 282 282 281 280 279 278 277 275
290 290 290 291 291 291 291 291 291 291 291 291 291 291 291 291 291 290 290 290 290 289 289 289 288 287 287 287 287 286 286 286 286 285 285 285 284 284 283 282 281 279 276
292 293 294 293 293 293 293 293 293 293 293 293 293 293 293 292 292 291 291 291 291 290 290 289 289 288 289 289 288 288 288 287 287 286 286 286 287 287 286 284 283 280 277
295 295 295 295 295 295 295 294 294 294 294 294 293 293 292 292 292 293 293 293 293 292 291 290 290 290 290 290 290 290 290 290 289 289 288 289 289 290 290 287 285 283 280
296 296 296 296 296 296 296 296 296 295 295 295 294 293 293 293 293 292 292 293 293 293 293 292 292 292 292 292 293 294 294 293 293 293 293 292 292 292 292 291 290 288 284
297 297 297 297 297 297 297 297 296 296 296 295 295 295 294 294 294 293 294 295 295 295 295 295 294 295 294 294 295 297 298 298 296 295 294 294 295 295 295 295 292 290 288
298 298 298 298 298 298 298 298 298 297 297 297 297 297 296 296 296 296 296 297 298 298 298 299 299 299 298 298 299 300 301 301 300 300 298 297 295 295 296 295 293 291 288
299 299 299 300 300 300 300 300 300 299 299 299 299 299 299 298 298 298 298 298 300 301 301 302 302 302 302 302 303 304 304 305 305 304 304 302 300 299 298 295 293 291 289
301 301 301 301 301 302 302 302 302 301 301 301 301 301 301 300 300 300 300 300 302 303 303 304 306 307 307 307 307 308 309 310 310 310 309 307 305 303 302 299 296 293 291
302 303 303 304 304 305 305 305 304 304 304 304 303 303 303 303 303 302 302 303 305 306 306 307 310 311 313 314 313 312 313 314 314 315 315 313 310 307 304 302 300 296 294
Height
5843 5845 5846 5848 5849 5851 5853 5854 5855 5856 5857 5857 5858 5859 5859 5859 5859 5859 5859 5858 5858 5857 5857 5856 5855 5854 5854 5853 5852 5851 5851 5850 5849 5849 5848 5847 5846 5845 5844 5843 5842 5841 5840
5842 5843 5844 5845 5847 5848 5849 5850 5851 5852 5852 5853 5853 5854 5854 5854 5854 5854 5853 5853 5852 5851 5850 5850 5849 5848 5847 5846 5845 5844 5843 5842 5842 5841 5840 5839 5839 5838 5837 5836 5834 5833 5832
5840 5841 5841 5842 5844 5845 5845 5846 5847 5847 5848 5848 5848 5848 5848 5848 5847 5847 5846 5846 5845 5844 5843 5842 5841 5840 5839 5838 5837 5836 5835 5834 5834 5833 5832 5830 5830 5829 5828 5827 5826 5825 5824
5838 5838 5838 5839 5840 5840 5841 5841 5841 5842 5842 5842 5842 5842 5842 5841 5840 5839 5839 5838 5838 5837 5836 5835 5833 5832 5831 5830 5829 5828 5826 5826 5824 5824 5823 5821 5820 5818 5817 5817 5816 5815 5814
5834 5834 5835 5835 5835 5835 5836 5836 5836 5836 5836 5835 5835 5834 5834 5833 5832 5831 5830 5830 5829 5828 5827 5826 5825 5823 5822 5820 5819 5818 5816 5815 5814 5813 5812 5811 5810 5808 5806 5805 5805 5804 5803
5830 5830 5830 5830 5830 5830 5830 5830 5830 5829 5829 5827 5827 5826 5825 5824 5823 5822 5821 5820 5820 5819 5817 5816 5815 5813 5812 5810 5809 5807 5806 5805 5803 5802 5800 5799 5798 5796 5794 5793 5792 5792 5792
5825 5825 5824 5824 5824 5824 5823 5823 5822 5821 5820 5818 5817 5816 5815 5814 5813 5812 5811 5810 5809 5808 5807 5805 5804 5802 5801 5799 5797 5796 5795 5793 5791 5789 5787 5787 5785 5784 5781 5780 5779 5778 5779
5820 5819 5818 5818 5817 5816 5815 5814 5813 5812 5810 5808 5807 5806 5805 5804 5803 5802 5800 5799 5798 5796 5795 5793 5792 5790 5788 5787 5785 5784 5782 5780 5778 5775 5774 5773 5772 5770 5767 5766 5764 5764 5764
5813 5812 5811 5810 5809 5808 5807 5805 5803 5802 5801 5799 5798 5796 5794 5794 5792 5791 5789 5788 5786 5784 5782 5781 5779 5777 5775 5773 5772 5770 5769 5767 5764 5761 5760 5758 5756 5754 5752 5750 5748 5747 5747
5805 5804 5803 5802 5800 5799 5798 5796 5795 5793 5791 5789 5787 5785 5784 5782 5781 5780 5778 5776 5774 5772 5770 5768 5766 5764 5762 5759 5757 5756 5754 5752 5749 5747 5745 5742 5740 5738 5735 5732 5730 5728 5728
5798 5797 5795 5794 5792 5791 5789 5787 5786 5784 5782 5780 5777 5776 5774 5772 5770 5768 5766 5764 5762 5759 5757 5754 5752 5749 5747 5744 5742 5739 5737 5735 5733 5730 5728 5725 5722 5719 5716 5713 5710 5708 5707
5791 5789 5788 5786 5784 5782 5780 5778 5776 5773 5771 5769 5767 5765 5763 5761 5758 5756 5754 5751 5748 5746 5743 5740 5737 5734 5731 5728 5725 5722 5719 5716 5713 5711 5708 5705 5702 5699 5696 5693 5690 5687 5686
5782 5781 5779 5777 5775 5772 5770 5768 5765 5763 5761 5758 5756 5754 5751 5749 5746 5743 5740 5737 5734 5731 5728 5725 5721 5718 5714 5710 5706 5702 5699 5695 5692 5689 5686 5683 5680 5677 5674 5671 5668 5665 5664
5774 5771 5769 5767 5765 5762 5760 5757 5755 5752 5750 5747 5744 5741 5738 5735 5732 5729 5725 5722 5719 5715 5712 5708 5704 5700 5696 5691 5687 5682 5677 5673 5669 5666 5663 5660 5656 5653 5650 5647 5645 5642 5640
5764 5762 5759 5757 5754 5752 5749 5746 5744 5741 5738 5735 5731 5728 5725 5721 5717 5714 5710 5706 5702 5698 5694 5689 5685 5680 5676 5671 5666 5661 5656 5652 5647 5644 5640 5637 5633 5630 5627 5624 5620 5618 5616
5755 5752 5750 5747 5744 5741 5738 5735 5731 5728 5725 5721 5717 5714 5710 5706 5702 5698 5693 5689 5684 5680 5675 5670 5665 5660 5656 5651 5646 5641 5636 5631 5627 5623 5619 5615 5612 5608 5605 5601 5597 5594 5593
5745 5742 5739 5736 5733 5730 5726 5722 5719 5715 5711 5707 5703 5698 5694 5690 5685 5680 5676 5671 5665 5661 5656 5651 5646 5641 5636 5632 5627 5623 5618 5613 5608 5603 5599 5595 5592 5588 5585 5581 5577 5574 5572
5735 5732 5728 5725 5721 5717 5713 5709 5705 5701 5696 5691 5687 5682 5677 5672 5668 5663 5658 5653 5647 5642 5637 5633 5628 5623 5619 5614 5610 5605 5601 5596 5591 5587 5582 5578 5574 5571 5567 5564 5561 5557 5555
5724 5720 5716 5712 5708 5704 5700 5695 5690 5686 5681 5676 5671 5666 5661 5656 5650 5646 5641 5636 5631 5626 5621 5616 5611 5607 5603 5598 5594 5589 5585 5580 5576 5572 5568 5564 5560 5556 5553 5549 5546 5543 5540
5712 5708 5703 5699 5695 5690 5685 5680 5675 5670 5665 5660 5655 5650 5645 5640 5635 5630 5625 5620 5615 5610 5605 5601 5596 5592 5588 5584 5580 5575 5571 5567 5562 5558 5555 5551 5547 5543 5540 5536 5533 5530 5528
5699 5695 5690 5685 5680 5676 5671 5666 5660 5655 5650 5645 5640 5635 5630 5625 5620 5615 5610 5605 5601 5596 5591 5587 5583 5579 5575 5572 5568 5564 5560 5555 5551 5548 5544 5540 5537 5533 5529 5526 5523 5520 5518
5686 5681 5676 5671 5666 5661 5656 5651 5646 5640 5635 5630 5625 5620 5615 5610 5606 5601 5597 5593 5588 5584 5580 5576 5572 5569 5565 5561 5558 5554 5550 5546 5542 5538 5535 5532 5528 5525 5521 5518 5515 5513 5511
5673 5668 5663 5658 5653 5648 5642 5637 5632 5626 5621 5616 5612 5607 5602 5598 5593 5589 5586 5582 5578 5574 5570 5567 5563 5560 5556 5552 5549 5545 5542 5538 5534 5530 5527 5524 5520 5517 5514 5511 5509 5507 5505
5660 5655 5650 5644 5639 5634 5629 5624 5619 5614 5609 5604 5600 5595 5591 5587 5583 5580 5576 5573 5569 5566 5562 5559 5555 5552 5548 5545 5541 5538 5534 5530 5527 5524 5520 5517 5514 5511 5508 5505 5503 5502 5500
5647 5642 5637 5632 5628 5623 5618 5612 5607 5603 5598 5594 5590 5586 5582 5578 5575 5572 5568 5565 5562 5559 5555 5552 5548 5545 5541 5538 5534 5531 5528 5525 5521 5517 5514 5511 5508 5505 5502 5500 5498 5497 5495
5635 5631 5626 5621 5617 5612 5607 5602 5597 5593 5589 5585 5581 5577 5574 5571 5567 5564 5561 5559 5556 5552 5549 5545 5542 5539 5535 5532 5529 5526 5523 5520 5516 5513 5509 5506 5503 5501 5498 5496 5494 5492 5491